BOX335 LIML-LIRN

Flight info

Callsign BOX335
Flight time N/A
Altitude 41000
Route LOGDI DCT LOMED DCT GENGI DCT EVULI DCT ERIKA
Aircraft B77L/H-SDE1E2E3FGHIJ2J3J4J5M1RWXY/LB1D1

Departure

Time 2026-05-04 16:31
Airport Milano Linate Airport (LIML)

Arrival

Time N/A
Airport Naples International Airport (LIRN)
Time Latitude Longitude Altitude Speed Heading
2026-05-04 16:02 45.45259 9.28143 364 ft 0 kts 116°
2026-05-04 16:24 45.45303 9.28101 364 ft 4 kts 207°
2026-05-04 16:25 45.45315 9.28111 364 ft 0 kts 207°
2026-05-04 16:26 45.45288 9.28091 366 ft 9 kts 206°
2026-05-04 16:27 45.45020 9.28068 366 ft 21 kts 178°
2026-05-04 16:28 45.44699 9.27954 368 ft 28 kts 175°
2026-05-04 16:28 45.44007 9.28029 369 ft 37 kts 176°
2026-05-04 16:29 45.43480 9.27822 369 ft 19 kts 337°
2026-05-04 16:30 45.44042 9.27755 366 ft 105 kts 355°
2026-05-04 16:31 45.46081 9.27539 684 ft 190 kts 355°
2026-05-04 16:31 45.50495 9.28007 2352 ft 235 kts
2026-05-04 16:32 45.53421 9.33547 4228 ft 263 kts 97°
2026-05-04 16:33 45.51417 9.37646 5755 ft 265 kts 152°
2026-05-04 16:33 45.48174 9.40256 7016 ft 272 kts 135°
2026-05-04 16:34 45.46072 9.44863 8390 ft 281 kts 126°
2026-05-04 16:34 45.44974 9.47122 9260 ft 281 kts 127°
2026-05-04 16:35 45.41518 9.54305 10904 ft 322 kts 127°
2026-05-04 16:35 45.37362 9.62230 11808 ft 374 kts 139°
2026-05-04 16:36 45.35324 9.64563 12634 ft 378 kts 148°
2026-05-04 16:36 45.30775 9.68480 14349 ft 388 kts 151°
2026-05-04 16:37 45.26131 9.72475 15840 ft 399 kts 151°
2026-05-04 16:37 45.23812 9.74480 16552 ft 405 kts 151°
2026-05-04 16:37 45.18938 9.78702 18024 ft 417 kts 151°
2026-05-04 16:38 45.13920 9.83045 19389 ft 426 kts 151°
2026-05-04 16:39 45.06346 9.89591 21470 ft 435 kts 150°
2026-05-04 16:39 45.01130 9.94089 22777 ft 443 kts 150°
2026-05-04 16:40 44.95847 9.98633 23975 ft 451 kts 150°
2026-05-04 16:40 44.90425 10.03283 24949 ft 460 kts 150°
2026-05-04 16:41 44.84889 10.08021 25923 ft 469 kts 150°
2026-05-04 16:41 44.76403 10.15270 27311 ft 482 kts 150°
2026-05-04 16:42 44.67991 10.23357 28579 ft 497 kts 141°
2026-05-04 16:43 44.62734 10.29791 29374 ft 505 kts 141°
2026-05-04 16:43 44.57333 10.36254 30199 ft 511 kts 141°
2026-05-04 16:43 44.54651 10.39435 30636 ft 511 kts 142°
2026-05-04 16:44 44.43770 10.52292 32338 ft 512 kts 142°
2026-05-04 16:45 44.38311 10.58725 33156 ft 513 kts 142°
2026-05-04 16:46 44.30107 10.68361 34303 ft 514 kts 143°
2026-05-04 16:46 44.24626 10.74781 34987 ft 513 kts 143°
2026-05-04 16:47 44.19167 10.81156 35665 ft 511 kts 143°
2026-05-04 16:47 44.13742 10.87478 36256 ft 511 kts 143°
2026-05-04 16:48 44.05570 10.96972 37178 ft 508 kts 143°
2026-05-04 16:48 44.02860 11.00120 37524 ft 506 kts 142°
2026-05-04 16:49 43.97706 11.06730 38247 ft 503 kts 139°
2026-05-04 16:49 43.92592 11.13442 38464 ft 509 kts 139°
2026-05-04 16:50 43.87585 11.19980 38701 ft 513 kts 139°
2026-05-04 16:50 43.82405 11.26705 39381 ft 503 kts 139°
2026-05-04 16:51 43.77375 11.33216 40348 ft 487 kts 139°
2026-05-04 16:51 43.74921 11.36386 40873 ft 478 kts 139°
2026-05-04 16:51 43.70061 11.42646 41078 ft 479 kts 139°
2026-05-04 16:52 43.65164 11.48938 41100 ft 482 kts 139°
2026-05-04 16:53 43.57792 11.58388 41117 ft 488 kts 139°
2026-05-04 16:54 43.47909 11.71008 41122 ft 495 kts 139°
2026-05-04 16:55 43.32724 11.90287 41121 ft 504 kts 139°
2026-05-04 16:56 43.20583 12.05601 41121 ft 510 kts 139°
2026-05-04 16:57 43.18587 12.08110 41116 ft 511 kts 139°
2026-05-04 16:58 43.08083 12.21277 41120 ft 515 kts 139°
2026-05-04 17:00 42.92112 12.41176 41113 ft 521 kts 139°
2026-05-04 17:01 42.78654 12.57832 41111 ft 525 kts 138°
2026-05-04 17:02 42.67814 12.71173 41142 ft 528 kts 138°
2026-05-04 17:03 42.59610 12.81227 41150 ft 530 kts 138°
2026-05-04 17:03 42.51364 12.91295 41149 ft 533 kts 139°
2026-05-04 17:04 42.40340 13.04701 40923 ft 523 kts 139°
2026-05-04 17:05 42.35113 13.11239 39297 ft 501 kts 136°
2026-05-04 17:05 42.30131 13.17692 36571 ft 502 kts 136°
2026-05-04 17:06 42.24949 13.24350 34320 ft 517 kts 136°
2026-05-04 17:06 42.22316 13.27707 33368 ft 524 kts 136°
2026-05-04 17:07 42.17069 13.34383 32314 ft 514 kts 136°
2026-05-04 17:07 42.15352 13.36562 31980 ft 512 kts 136°
2026-05-04 17:07 42.11892 13.40945 31275 ft 507 kts 136°
2026-05-04 17:07 42.09335 13.44181 30773 ft 502 kts 136°
2026-05-04 17:08 42.06796 13.47393 30275 ft 498 kts 137°
2026-05-04 17:08 42.01781 13.53725 29131 ft 489 kts 137°
2026-05-04 17:08 41.99309 13.56842 28625 ft 484 kts 137°
2026-05-04 17:09 41.96867 13.59918 28102 ft 479 kts 137°
2026-05-04 17:09 41.94483 13.62917 27618 ft 474 kts 137°
2026-05-04 17:09 41.92078 13.65938 27124 ft 469 kts 137°
2026-05-04 17:10 41.87344 13.71879 26145 ft 461 kts 137°
2026-05-04 17:10 41.80412 13.80553 24756 ft 448 kts 136°
2026-05-04 17:11 41.78160 13.83365 24277 ft 445 kts 136°
2026-05-04 17:11 41.75901 13.86184 23812 ft 442 kts 136°
2026-05-04 17:11 41.71434 13.91750 22782 ft 434 kts 136°
2026-05-04 17:12 41.69232 13.94490 22313 ft 430 kts 136°
2026-05-04 17:12 41.64891 13.99883 21410 ft 421 kts 136°
2026-05-04 17:13 41.58755 14.08034 20114 ft 409 kts 131°
2026-05-04 17:14 41.53130 14.16387 18838 ft 400 kts 131°
2026-05-04 17:14 41.51266 14.19109 18398 ft 398 kts 132°
2026-05-04 17:14 41.47551 14.24490 17535 ft 389 kts 132°
2026-05-04 17:15 41.45731 14.27117 17397 ft 378 kts 132°
2026-05-04 17:15 41.42254 14.32120 17046 ft 357 kts 133°
2026-05-04 17:16 41.38594 14.36477 16362 ft 348 kts 139°
2026-05-04 17:16 41.33218 14.42604 15405 ft 331 kts 142°
2026-05-04 17:17 41.31326 14.44268 15260 ft 321 kts 148°
2026-05-04 17:17 41.25648 14.47836 14517 ft 290 kts 182°
2026-05-04 17:18 41.23729 14.47262 13974 ft 283 kts 209°